Regional Weather Roundup
Issued by NWS

Home | Current Version | Previous Version | Graphics & Text | Print | Product List | Glossary On
Versions: 1 2 3 4 5 6 7 8 9 10 11 12 13 14 15 16 17 18 19 20 21 22 23 24 25 26 27 28 29 30 31 32 33 34 35 36 37 38 39 40 41 42 43 44 45 46 47 48 49 50
000
ASUS44 KMEG 222310
RWRTN
TENNESSEE HOURLY STATE WEATHER ROUNDUP
NATIONAL WEATHER SERVICE MEMPHIS TN
600 PM CDT SUN OCT 22 2017

TNZ002-004-019-021-049-052-054-088>092-230000-
WEST TENNESSEE

CITY           SKY/WX    TMP DP  RH WIND       PRES   REMARKS
MEMPHIS INTL   LGT RAIN  65  63  93 W6        29.96S
NWS MEMPHIS      N/A     64 N/A N/A MISG        N/A
JACKSON        LGT RAIN  70  68  93 S6        29.94F
DYERSBURG      LGT RAIN  68  66  93 SW8       29.93F
SOMERVILLE     FOG       68  66  94 W8        29.93S VSB 3/4
COVINGTON      CLOUDY    64  64 100 W9        29.94S
UNION CITY     CLOUDY    70  68  94 CALM      29.91F
BOLIVAR        CLOUDY    70  66  88 SE7       29.93F
HUNTINGDON     MOCLDY    70  68  94 SE8       29.94F
LEXINGTON      CLOUDY    68  66  94 CALM      29.96F
SELMER         MOCLDY    70  68  94 SE7       29.95F
SAVANNAH       MOCLDY    70  68  94 VRB5      29.96F FOG
$$

TNZ008-025-027-028-033-062-065-066-230000-
NORTH MIDDLE TENNESSEE

CITY           SKY/WX    TMP DP  RH WIND       PRES   REMARKS
NASHVILLE      MOCLDY    75  60  59 SE10      30.02F
PORTLAND       CLEAR     73  61  64 SE8       30.01F
CLARKSVILLE    LGT RAIN  72  62  71 S6        29.98F
SMYRNA         PTCLDY    74  61  63 SE8       30.03F
COOKEVILLE     CLEAR     72  59  64 SE8       30.08F
GALLATIN       PTCLDY    73  61  64 SE5       30.05F
CROSSVILLE     MOCLDY    68  57  68 VRB5      30.15S
$$

TNZ061-075-076-078-094-096-097-230000-
SOUTH MIDDLE TENNESSEE

CITY           SKY/WX    TMP DP  RH WIND       PRES   REMARKS
FAYETTEVILLE   CLOUDY    73  63  68 SE10G18   30.04S
TULLAHOMA      CLEAR     72  59  64 SE7       30.07S
WINCHESTER     CLEAR     72  63  73 SE9         N/A
COLUMBIA       PTCLDY    75  63  64 SE6G13    29.98F
SHELBYVILLE    PTCLDY    73  63  68 SE8       30.03F
$$

TNZ017-018-042-046-047-230000-
NORTHEAST TENNESSEE

CITY           SKY/WX    TMP DP  RH WIND       PRES   REMARKS
TRI CITIES     MOCLDY    70  53  54 SE6       30.22R
ELIZABETHTON   CLEAR     68  52  56 CALM      30.23R
$$

TNZ012-013-036-069-073-074-230000-
CENTRAL EAST TENNESSEE

CITY           SKY/WX    TMP DP  RH WIND       PRES   REMARKS
KNOXVILLE      CLOUDY    73  58  59 SE6       30.12F
OAK RIDGE      PTCLDY    70  60  70 CALM      30.14F
DOWNTOWN KNOXV MOCLDY    70  61  73 CALM      30.13F
GATLINBURG     CLOUDY    72  55  56 CALM      30.14F
MORRISTOWN     CLEAR     72  54  53 E5        30.16F
JACKSBORO      PTCLDY    68  57  68 CALM      30.18S HAZE
$$

TNZ083-085-099-230000-
SOUTHEAST TENNESSEE

CITY           SKY/WX    TMP DP  RH WIND       PRES   REMARKS
CHATTANOOGA    MOCLDY    74  61  63 SE5       30.11S
DAYTON         CLEAR     72  64  78 CALM      30.10F
$$

SKY/WX REPORTED AS FAIR MEANS FEW OR NO CLOUDS BELOW
12 THOUSAND FEET.





USA.gov is the U.S. government's official web portal to all federal, state and local government web resources and services.